User: anonymous   Login
Location: Diebersbach
(48.5163°N, 8.0558°E)
Time: 04:45:38
(UTC+00:00)
Language:

CZ-4C R/B - Orbit

View from above orbital plane
View from above orbital plane
View from above satellite
View from above satellite

Ground track
Ground track

The orbit data is extracted from the following two-line orbital elements,

1 36416U 10009D   21263.77149009 -.00000119  00000-0 -13789-5 0  9997
2 36416  63.4196  42.7920 0540043 355.7723   3.8844 13.69602052577553
Epoch (UTC): 20 September 2021 18:30:56
Eccentricity: 0.0540043
inclination: 63.4196°
perigee height: 602 km
apogee height: 1399 km
right ascension of ascending node: 42.7920°
argument of perigee: 355.7723°
revolutions per day: 13.69602052
mean anomaly at epoch: 3.8844°
orbit number at epoch: 57755

The dashed part of the orbit path shows where the satellite is in the earth's shadow,  

DLR